Regional Weather Roundup
Issued by NWS

Home | Current Version | Previous Version | Graphics & Text | Print | Product List | Glossary On
Versions: 1 2 3 4 5 6 7 8 9 10 11 12 13 14 15 16 17 18 19 20 21 22 23 24 25 26 27 28 29 30 31 32 33 34 35 36 37 38 39 40 41 42 43 44 45 46 47 48 49 50
000
ASUS43 KIND 261509
RWRIN

WEATHER ROUNDUP FOR INDIANA
NATIONAL WEATHER SERVICE INDIANAPOLIS IN
1100 AM EDT THU MAY 26 2016

NOTE: "FAIR" INDICATES FEW OR NO CLOUDS BELOW 12,000 FEET WITH NO
SIGNIFICANT WEATHER AND/OR OBSTRUCTIONS TO VISIBILITY.

* - STATION DOES NOT REPORT WEATHER SUCH AS PRECIPITATION OR FOG.

+ - STATION NOT QUALITY CONTROLLED BY THE NATIONAL WEATHER SERVICE.
    USE DATA WITH CAUTION...ESPECIALLY DEWPOINT AND RELATIVE
    HUMIDITY OBSERVATIONS.

INZ001>003-010>013-019-020-261600-
NORTHWEST INDIANA

CITY           SKY/WX    TMP DP  RH WIND       PRES   REMARKS
GARY /AIRPORT/ CLOUDY    75  73  94 SW6       29.94F
KNOX *+        CLOUDY    77  55  47 SW9       29.96S
LA PORTE +     CLOUDY    78  69  74 SW9       29.96S
MICHIGAN CITY+ CLOUDY    75  68  78 SW10      29.96S
MONTICELLO +   CLOUDY    73  65  76 S10       29.99R
RENSSELAER +   CLOUDY    72  68  88 SW10      29.99R
VALPARAISO     CLOUDY    73  66  78 SW12      29.97R

$$

LMZ046-743>745-261600-
SOUTHERN LAKE MICHIGAN

STATION/POSITION TIME  TEMP    WIND        PRES    WAVE
                       AIR SEA DIR/SP/G            HT
                 (UTC) (F)     (DEG/KT/KT) (MB)    (FT)
BURNS HARBOR     1400   72     210/ 12/ 15 1014.2S
MICHIGAN CITY    1400   72     170/ 10/ 12   N/A
5NW MICH CITY    1500   64 58  220/  6/  8   N/A     1

$$

INZ004-005-014>016-021>024-261600-
NORTH CENTRAL INDIANA

CITY           SKY/WX    TMP DP  RH WIND       PRES   REMARKS
ELKHART        CLOUDY    75  70  83 SW7       29.97F
GOSHEN         PTSUNNY   75  65  70 W8        29.97F
LOGANSPORT +   CLOUDY    73  64  73 SW14      30.01R
PERU/GRISSOM   CLOUDY    75  68  77 SW15      29.99R
ROCHESTER +    MOSUNNY   79  68  69 SW8       29.98S
SOUTH BEND     MOSUNNY   76  66  71 S9        29.96F
WARSAW +       MOSUNNY   75  64  69 S5        29.99S

$$

INZ006>009-017-018-025>027-261600-
NORTHEAST INDIANA

CITY           SKY/WX    TMP DP  RH WIND       PRES   REMARKS
ANGOLA *+      PTSUNNY   75  70  83 SW8       29.99S
AUBURN +       CLOUDY    75  63  64 SW6       30.00S
FORT WAYNE     PTSUNNY   77  65  66 S9        29.99F
HUNTINGTON +   PTSUNNY   76  65  67 SW7       29.98F

$$

INZ028-029-035-036-043>045-051>053-261600-
WEST CENTRAL INDIANA

CITY           SKY/WX    TMP DP  RH WIND       PRES   REMARKS
CRAWFORDSVL +  CLOUDY    71  67  87 SW10      30.01R
GREENCASTLE +  CLOUDY    72  68  88 S7        30.03R
LAFAYETTE      CLOUDY    71  66  84 SW6       30.00R
TERRE HAUTE    CLOUDY    74  65  73 W16G23    30.05R THUNDER

$$

INZ030>032-037>040-046>048-054>057-064-065-261600-
CENTRAL INDIANA

CITY           SKY/WX    TMP DP  RH WIND       PRES   REMARKS
ANDERSON       CLOUDY    72  64  78 S12       30.04S
CP ATTERBURY + CLOUDY    72  64  78 S9        30.06R
FISHERS *+     CLOUDY    72  66  83 S8        30.03R
FRANKFORT +      N/A     73  60  64 SW6       30.03R
GREENWOOD *+   CLOUDY    73  64  73 S12       30.04
INDIANAPOLIS   NOT AVBL
-EAGLE CREEK   CLOUDY    72  64  76 S7        30.02R
KOKOMO *+      CLOUDY    73  64  73 SW13      30.01R
MARION +       CLOUDY    74  65  73 SW13      30.02R
SHELBYVILLE    CLOUDY    73  63  70 S13       30.04R
ZIONSVILLE +   CLOUDY    73  65  76 S10       30.03S

$$

INZ033-034-041-042-049-050-058-059-261600-
EAST CENTRAL INDIANA

CITY           SKY/WX    TMP DP  RH WIND       PRES   REMARKS
MUNCIE         CLOUDY    74  64  71 S9        30.02S

$$

INZ060-061-067>069-081>083-085>088-261600-
SOUTHWEST INDIANA

CITY           SKY/WX    TMP DP  RH WIND       PRES   REMARKS
EVANSVILLE     MOSUNNY   77  67  71 SW12      30.04F
HUNTINGBURG *+ PTSUNNY   77  66  69 SW10G18   30.05F
WASHINGTON +   PTSUNNY   77  68  73 SW9       30.03R

$$

INZ062-063-066-070>080-084-089>092-261600-
SOUTH CENTRAL AND SOUTHEAST INDIANA

CITY           SKY/WX    TMP DP  RH WIND       PRES   REMARKS
BEDFORD +      CLOUDY    75  72  88 S8        30.06R
BLOOMINGTON    CLOUDY    74  65  73 S8        30.05R
MADISON *+     PTSUNNY   73  63  68 S8        30.10S
NORTH VERNON + CLOUDY    75  70  83 S5        30.07F
SEYMOUR +      CLOUDY    75  64  69 S8        30.06S

$$





USA.gov is the U.S. government's official web portal to all federal, state and local government web resources and services.